This demonstration page uses our WeatherBlox Daily Observations layout. Learn more.

Left ArrowRight Arrow

Hourly Observations for September 30, 2015

Temp ( °F °C ) Dew Point ( °F °C ) Humidity (%) Winds ( mph kmh ) Pressure ( in mb ) Visibility ( mi km ) Precip ( " mm )
12:15 am 00:15 Cloudy with Drizzle 72 22 72 22 100 100 WNW 7 11 29.77 1008 3 5 0.00 0.00
12:35 am 00:35 Cloudy with Drizzle 72 22 72 22 100 100 Calm 29.74 1007 3 4 0.00 0.00
12:55 am 00:55 Cloudy with Mist and Fog 72 22 72 22 100 100 NNW 3 6 29.74 1007 3 4 0.00 0.00
1:15 am 01:15 Cloudy with Mist and Fog 72 22 72 22 100 100 WNW 7 11 29.74 1007 3 5 0.00 0.00
1:35 am 01:35 Cloudy 72 22 72 22 100 100 WNW 8 13 29.74 1007 10 16 0.00 0.00
1:55 am 01:55 Cloudy with Mist and Fog 72 22 72 22 100 100 W 3 6 29.74 1007 5 8 0.00 0.00
2:15 am 02:15 Cloudy 72 22 72 22 100 100 Calm 29.74 1007 7 11 0.00 0.00
2:35 am 02:35 Cloudy 72 22 72 22 100 100 Calm 29.74 1007 7 11 0.00 0.00
2:55 am 02:55 Cloudy 72 22 72 22 100 100 Calm 29.74 1007 7 11 0.00 0.00
3:15 am 03:15 Cloudy with Mist and Fog 72 22 72 22 100 100 Calm 29.71 1006 4 6 0.00 0.00
3:35 am 03:35 Cloudy 72 22 72 22 100 100 Calm 29.71 1006 7 11 0.00 0.00
3:55 am 03:55 Cloudy 72 22 72 22 100 100 Calm 29.71 1006 10 16 0.00 0.00
4:15 am 04:15 Cloudy 72 22 72 22 100 100 Calm 29.71 1006 10 16 0.00 0.00
4:35 am 04:35 Cloudy with Fog 72 22 72 22 100 100 Calm 29.71 1006 1 1 0.00 0.00
4:55 am 04:55 Cloudy with Mist and Fog 72 22 72 22 100 100 S 3 6 29.71 1006 1 1 0.00 0.00
5:15 am 05:15 Cloudy with Mist and Fog 72 22 72 22 100 100 Calm 29.71 1006 1 1 0.00 0.00
5:35 am 05:35 Cloudy with Fog 72 22 72 22 100 100 Calm 29.71 1006 1 1 0.00 0.00
5:55 am 05:55 Cloudy with Fog 72 22 72 22 100 100 Calm 29.71 1006 1 1 0.00 0.00
6:15 am 06:15 Cloudy with Fog 72 22 72 22 100 100 WNW 3 6 29.71 1006 1 1 0.00 0.00
6:35 am 06:35 Cloudy with Mist and Fog 72 22 72 22 100 100 Calm 29.74 1007 2 3 0.00 0.00
6:55 am 06:55 Cloudy with Mist and Fog 72 22 72 22 100 100 NW 3 6 29.71 1006 5 8 0.00 0.00
7:15 am 07:15 Cloudy with Mist and Fog 72 22 72 22 100 100 NNW 5 7 29.74 1007 5 8 0.00 0.00
7:35 am 07:35 Cloudy 72 22 72 22 100 100 NW 3 6 29.74 1007 10 16 0.00 0.00
7:55 am 07:55 Cloudy 72 22 72 22 100 100 Calm 29.74 1007 10 16 0.00 0.00
8:15 am 08:15 Cloudy 72 22 72 22 100 100 Calm 29.77 1008 10 16 0.00 0.00
8:35 am 08:35 Cloudy 72 22 72 22 100 100 undefined N/A 29.77 1008 7 11 0.00 0.00
8:55 am 08:55 Cloudy 72 22 72 22 100 100 NW 8 13 29.77 1008 7 11 0.00 0.00
9:15 am 09:15 Cloudy 72 22 72 22 100 100 NW 10 17 29.77 1008 10 16 0.00 0.00
9:35 am 09:35 Cloudy 72 22 72 22 100 100 NW 9 15 29.77 1008 10 16 0.00 0.00
9:55 am 09:55 Cloudy 72 22 72 22 100 100 NW 12 19 29.77 1008 10 16 0.00 0.00
10:15 am 10:15 Cloudy 72 22 72 22 100 100 NW 12 19 29.80 1009 10 16 0.00 0.00
10:35 am 10:35 Cloudy 72 22 72 22 100 100 NW 9 15 29.80 1009 10 16 0.00 0.00
10:55 am 10:55 Cloudy 72 22 72 22 100 100 NW 13 20 29.80 1009 10 16 0.00 0.00
11:15 am 11:15 Cloudy with Light Rain 72 22 72 22 100 100 NW 10 17 29.80 1009 1 2 0.00 0.00
11:35 am 11:35 Cloudy with Mist and Fog 72 22 72 22 100 100 NW 13 20 29.83 1010 5 8 0.00 0.00
11:55 am 11:55 Cloudy with Light Rain 72 22 72 22 100 100 NW 10 17 29.83 1010 2 3 0.00 0.00
12:15 pm 12:15 Cloudy with Mist and Fog 70 21 70 21 100 100 NNW 14 22 29.83 1010 4 6 0.00 0.00
12:35 pm 12:35 Cloudy with Mist and Fog 70 21 70 21 100 100 NNW 14 22 29.83 1010 3 5 0.00 0.00
12:55 pm 12:55 Cloudy with Rain 70 21 70 21 100 100 N 14 22 29.83 1010 3 5 0.00 0.00
1:15 pm 13:15 Cloudy with Light Rain 68 20 68 20 100 100 NNE 12 19 29.85 1011 4 6 0.00 0.00
1:35 pm 13:35 Cloudy 70 21 70 21 100 100 NNW 10 17 29.85 1011 10 16 0.00 0.00
1:55 pm 13:55 Cloudy with Light Rain 68 20 68 20 100 100 N 14 22 29.85 1011 3 5 0.00 0.00
2:15 pm 14:15 Cloudy with Mist and Fog 70 21 70 21 100 100 NNW 13 20 29.85 1011 5 8 0.00 0.00
2:35 pm 14:35 Cloudy 72 22 70 21 94 94 N 8 13 29.85 1011 10 16 0.00 0.00
2:55 pm 14:55 Cloudy 72 22 68 20 88 88 N 12 19 29.85 1011 10 16 0.00 0.00
3:15 pm 15:15 Cloudy 72 22 64 18 78 78 N 16 26 29.88 1012 10 16 0.00 0.00
3:35 pm 15:35 Cloudy 72 22 64 18 78 78 N 12 19 29.88 1012 10 16 0.00 0.00
3:55 pm 15:55 Cloudy 73 23 64 18 74 74 N 12 19 29.85 1011 10 16 0.00 0.00
4:15 pm 16:15 Cloudy 73 23 64 18 74 74 NNW 14 22 29.88 1012 10 16 0.00 0.00
4:35 pm 16:35 Cloudy 73 23 64 18 74 74 N 10 17 29.88 1012 10 16 0.00 0.00
4:55 pm 16:55 Cloudy 73 23 64 18 74 74 N 9 15 29.88 1012 10 16 0.00 0.00
5:15 pm 17:15 Cloudy 73 23 64 18 74 74 N 9 15 29.88 1012 10 16 0.00 0.00
5:35 pm 17:35 Cloudy 73 23 64 18 74 74 N 9 15 29.88 1012 10 16 0.00 0.00
5:55 pm 17:55 Cloudy 72 22 64 18 78 78 N 10 17 29.88 1012 10 16 0.00 0.00
6:15 pm 18:15 Cloudy 72 22 64 18 78 78 N 8 13 29.88 1012 10 16 0.00 0.00
6:35 pm 18:35 Cloudy 72 22 63 17 73 73 NNW 9 15 29.88 1012 10 16 0.00 0.00
6:55 pm 18:55 Cloudy 70 21 64 18 83 83 N 13 20 29.91 1013 10 16 0.00 0.00
7:15 pm 19:15 Cloudy 70 21 63 17 78 78 NNW 13 20 29.91 1013 10 16 0.00 0.00
7:35 pm 19:35 Cloudy 70 21 63 17 78 78 N 9 15 29.91 1013 10 16 0.00 0.00
8:15 pm 20:15 Cloudy 68 20 63 17 83 83 N 13 20 29.94 1014 10 16 0.00 0.00
8:35 pm 20:35 Cloudy 68 20 63 17 83 83 NNE 9 15 29.94 1014 10 16 0.00 0.00
8:55 pm 20:55 Cloudy 68 20 61 16 78 78 NNE 10 17 29.94 1014 10 16 0.00 0.00
9:15 pm 21:15 Cloudy 68 20 61 16 78 78 NNE 13 20 29.94 1014 10 16 0.00 0.00
9:35 pm 21:35 Cloudy 68 20 61 16 78 78 NNE 10 17 29.94 1014 10 16 0.00 0.00
9:55 pm 21:55 Cloudy 66 19 61 16 83 83 N 9 15 29.94 1014 10 16 0.00 0.00
10:15 pm 22:15 Cloudy 66 19 61 16 83 83 NNE 12 19 29.97 1015 10 16 0.00 0.00
10:35 pm 22:35 Cloudy 64 18 61 16 88 88 NNE 10 17 29.97 1015 10 16 0.00 0.00
10:55 pm 22:55 Cloudy 64 18 59 15 83 83 NNE 7 11 29.97 1015 10 16 0.00 0.00
11:15 pm 23:15 Cloudy 64 18 59 15 83 83 N 10 17 29.97 1015 10 16 0.00 0.00
11:35 pm 23:35 Cloudy 64 18 59 15 83 83 N 8 13 29.97 1015 10 16 0.00 0.00
11:55 pm 23:55 Cloudy 63 17 59 15 88 88 NNE 7 11 29.97 1015 10 16 0.00 0.00

Powered by AerisWeather